sat.trackr.live / text

‹ back to catalog

KUIPER-00008

NORAD 63724 · 2025-088A

PAYLOAD ACTIVE UNKNOWN

§ Identity

Operator
Country
US
Launch date
2025-04-28
Launch site
AFETR
Launch vehicle
Mass (kg)
RCS (m²)

External: N2YO · Heavens-Above · Gunter

§ Orbital elements

Epoch: 2026-05-25T04:19:08.986368Z

Period
97.30 min
Inclination
51.8999°
Eccentricity
0.0000946
Mean motion
14.79898939 rev/d
Perigee alt
629.0 km
Apogee alt
630.3 km
Semi-major
7,007.8 km
B*
7.2478e-4
RAAN
109.7687°
Arg perigee
89.0408°
Mean anomaly
271.0663°
Rev number
5,937

§ Raw data

KUIPER-000081 63724U 25088A   26145.17996512  .00005304  00000+0  72478-3 0  99952 63724  51.8999 109.7687 0000946  89.0408 271.0663 14.79898939 59377

JSON: /api/v1/satellites/63724 · /tle

For live sub-satellite position, see the globe view (requires WebGL).

§ Visibility from observer

Set your observer location to see the next 7 days of passes ≥ 10°. The values pass through the URL so the page stays shareable.

No JS? Fill the form by hand. The geolocation button needs JavaScript.